Temp
-14 -15 -15 -15 -15 -16 -17 -16 -17 -17 -17 -18 -18 -18 -19 -19 -20 -21 -22 -23 -24 -24 -25 -25 -26 -26 -26 -27 -27 -27 -27 -27 -27 -26 -26 -26 -26 -26 -26 -25 -25 -25 -25
-15 -15 -15 -15 -16 -17 -17 -17 -17 -18 -18 -18 -19 -19 -20 -20 -21 -22 -23 -24 -25 -25 -26 -26 -27 -27 -27 -27 -28 -28 -29 -29 -29 -28 -28 -28 -28 -27 -27 -27 -27 -26 -25
-15 -15 -15 -16 -17 -18 -18 -18 -18 -18 -19 -19 -20 -20 -21 -22 -23 -23 -24 -25 -26 -26 -26 -26 -27 -28 -28 -29 -30 -30 -30 -30 -30 -30 -29 -30 -29 -29 -29 -28 -28 -28 -28
-15 -16 -16 -17 -18 -18 -18 -19 -19 -19 -19 -20 -21 -21 -22 -23 -24 -25 -25 -26 -26 -27 -27 -28 -29 -29 -30 -31 -31 -31 -31 -31 -31 -31 -31 -30 -30 -30 -30 -29 -29 -29 -28
-16 -17 -17 -18 -18 -19 -19 -19 -19 -20 -20 -21 -22 -22 -23 -24 -25 -26 -26 -26 -27 -28 -28 -29 -30 -31 -31 -32 -32 -32 -32 -32 -32 -31 -31 -31 -30 -30 -30 -30 -29 -29 -29
-17 -17 -18 -18 -19 -19 -20 -19 -20 -21 -21 -22 -23 -24 -25 -25 -26 -26 -27 -27 -28 -29 -30 -31 -31 -32 -32 -32 -32 -32 -32 -32 -32 -32 -31 -31 -31 -32 -32 -31 -31 -30 -29
-18 -18 -18 -19 -20 -20 -20 -20 -21 -21 -22 -23 -24 -25 -26 -26 -27 -27 -28 -29 -29 -31 -31 -32 -32 -33 -33 -33 -33 -33 -33 -33 -33 -32 -32 -32 -32 -32 -32 -31 -31 -30 -30
-19 -19 -20 -20 -20 -20 -21 -21 -22 -23 -24 -24 -25 -26 -27 -27 -28 -28 -29 -30 -31 -32 -32 -33 -33 -34 -34 -34 -34 -33 -33 -33 -34 -34 -34 -33 -33 -33 -32 -31 -31 -31 -31
-20 -20 -20 -20 -21 -21 -22 -22 -23 -24 -25 -26 -26 -27 -27 -28 -29 -30 -31 -32 -32 -33 -34 -34 -34 -35 -35 -35 -34 -34 -34 -35 -35 -35 -35 -35 -34 -34 -33 -32 -32 -31 -32
-20 -20 -21 -21 -22 -22 -23 -23 -24 -25 -26 -27 -27 -28 -28 -29 -30 -31 -32 -33 -33 -34 -34 -35 -35 -36 -36 -36 -35 -35 -35 -36 -36 -37 -37 -36 -35 -35 -35 -34 -33 -33 -32
-21 -21 -22 -22 -23 -23 -24 -25 -25 -26 -27 -27 -28 -29 -30 -31 -32 -32 -33 -34 -34 -35 -35 -36 -36 -36 -37 -36 -37 -37 -37 -37 -38 -38 -37 -36 -36 -36 -36 -36 -35 -35 -34
-22 -22 -23 -23 -23 -24 -25 -26 -26 -27 -28 -28 -29 -30 -31 -32 -33 -34 -34 -35 -35 -36 -36 -36 -36 -37 -37 -37 -38 -38 -38 -38 -38 -38 -38 -37 -37 -37 -37 -36 -36 -35 -34
-22 -23 -23 -24 -25 -26 -26 -27 -27 -28 -29 -30 -31 -32 -33 -33 -34 -35 -35 -35 -36 -36 -36 -37 -37 -38 -38 -38 -38 -39 -39 -39 -39 -38 -38 -37 -37 -37 -36 -36 -35 -35 -34
-23 -24 -24 -25 -26 -27 -27 -28 -28 -29 -30 -31 -32 -33 -34 -35 -35 -35 -35 -36 -36 -36 -37 -37 -38 -38 -38 -38 -38 -39 -39 -39 -39 -38 -37 -37 -37 -36 -36 -35 -35 -35 -34
-24 -25 -26 -26 -27 -27 -28 -29 -30 -30 -32 -32 -33 -34 -35 -35 -35 -36 -36 -36 -36 -37 -37 -38 -38 -38 -38 -39 -39 -40 -40 -40 -39 -38 -37 -37 -37 -36 -37 -36 -36 -35 -35
-26 -26 -27 -27 -28 -28 -29 -30 -31 -32 -32 -33 -34 -35 -35 -36 -36 -36 -36 -37 -37 -38 -38 -38 -38 -38 -39 -39 -40 -40 -40 -40 -38 -38 -37 -37 -37 -37 -37 -37 -36 -36 -35
-27 -27 -28 -29 -29 -30 -30 -31 -32 -33 -33 -34 -35 -35 -36 -36 -36 -36 -37 -37 -38 -38 -38 -38 -38 -39 -39 -40 -40 -40 -40 -40 -38 -38 -38 -38 -37 -37 -37 -37 -37 -36 -36
-28 -29 -30 -30 -31 -31 -32 -32 -33 -33 -34 -35 -35 -36 -36 -36 -37 -37 -37 -38 -38 -38 -38 -38 -39 -39 -40 -40 -40 -40 -40 -39 -38 -38 -38 -38 -37 -37 -37 -37 -37 -37 -36
-30 -31 -31 -31 -32 -32 -33 -33 -33 -34 -34 -35 -36 -36 -37 -37 -37 -38 -38 -38 -38 -38 -38 -38 -39 -40 -41 -41 -40 -40 -40 -39 -39 -38 -38 -38 -37 -37 -37 -37 -37 -37 -36
-31 -32 -32 -32 -33 -33 -33 -34 -34 -35 -35 -36 -36 -37 -37 -38 -38 -38 -38 -38 -38 -38 -39 -39 -39 -40 -41 -41 -40 -40 -40 -39 -39 -38 -38 -38 -37 -37 -37 -37 -37 -37 -37
-32 -32 -33 -33 -33 -34 -34 -35 -35 -36 -36 -37 -37 -37 -38 -38 -38 -38 -38 -39 -39 -40 -39 -39 -40 -40 -40 -40 -40 -40 -40 -39 -38 -38 -38 -38 -37 -37 -37 -37 -37 -37 -37
-33 -33 -34 -34 -34 -35 -35 -36 -36 -36 -37 -37 -38 -38 -38 -38 -38 -38 -39 -39 -39 -40 -40 -40 -40 -40 -40 -40 -40 -40 -40 -39 -38 -38 -38 -37 -37 -37 -37 -37 -37 -37 -37
-34 -34 -34 -35 -35 -36 -36 -36 -37 -37 -38 -38 -38 -38 -38 -39 -39 -39 -39 -39 -39 -39 -39 -40 -40 -41 -40 -40 -40 -39 -39 -38 -38 -38 -38 -37 -37 -37 -37 -37 -37 -38 -37
-34 -35 -36 -36 -36 -36 -37 -37 -37 -38 -38 -38 -38 -39 -39 -39 -39 -39 -39 -39 -40 -40 -40 -40 -40 -41 -41 -40 -39 -39 -39 -38 -38 -38 -38 -38 -37 -37 -37 -37 -37 -37 -38
-36 -36 -36 -37 -37 -37 -37 -38 -38 -38 -39 -39 -39 -39 -39 -39 -39 -39 -39 -40 -40 -40 -40 -40 -40 -40 -40 -40 -39 -39 -38 -38 -38 -38 -38 -37 -37 -37 -37 -37 -38 -38 -38
-37 -37 -37 -37 -38 -38 -38 -38 -39 -39 -39 -39 -39 -39 -39 -39 -39 -39 -40 -40 -40 -40 -40 -40 -40 -40 -40 -39 -39 -38 -38 -38 -38 -37 -37 -37 -37 -37 -37 -38 -38 -38 -38
Height
5736 5731 5727 5722 5719 5714 5709 5703 5697 5691 5684 5679 5673 5666 5658 5649 5641 5633 5626 5618 5610 5602 5595 5587 5579 5573 5565 5557 5550 5543 5536 5529 5526 5540 5527 5523 5524 5520 5521 5519 5519 5520 5522
5720 5716 5712 5709 5704 5698 5692 5687 5680 5673 5666 5660 5652 5645 5638 5630 5622 5614 5607 5598 5591 5583 5574 5565 5556 5549 5541 5533 5525 5518 5511 5504 5498 5501 5499 5495 5491 5488 5486 5487 5488 5487 5489
5706 5701 5697 5693 5687 5681 5675 5669 5661 5654 5647 5640 5633 5626 5618 5610 5603 5596 5588 5579 5570 5561 5552 5543 5535 5527 5518 5510 5503 5496 5489 5484 5477 5474 5476 5469 5467 5460 5458 5458 5459 5460 5459
5690 5686 5682 5676 5670 5664 5657 5650 5643 5636 5629 5621 5614 5606 5598 5591 5583 5576 5568 5559 5549 5540 5532 5523 5514 5506 5498 5491 5485 5477 5472 5466 5461 5455 5453 5449 5444 5439 5433 5430 5436 5433 5436
5674 5670 5664 5658 5653 5646 5639 5632 5626 5619 5610 5603 5595 5586 5578 5571 5563 5556 5549 5539 5531 5523 5513 5504 5496 5488 5481 5474 5467 5460 5454 5449 5443 5436 5433 5428 5423 5416 5410 5407 5407 5408 5413
5657 5652 5647 5642 5635 5629 5622 5616 5609 5600 5592 5583 5576 5568 5559 5552 5544 5536 5528 5521 5513 5505 5496 5488 5480 5472 5465 5457 5450 5443 5436 5430 5425 5418 5413 5407 5403 5396 5390 5386 5384 5384 5392
5640 5635 5631 5624 5616 5611 5605 5598 5590 5581 5573 5566 5557 5549 5540 5532 5525 5518 5510 5502 5495 5486 5478 5471 5464 5455 5447 5441 5434 5427 5420 5412 5404 5397 5393 5386 5381 5376 5372 5369 5366 5367 5369
5623 5618 5611 5606 5599 5593 5586 5579 5570 5563 5555 5547 5539 5531 5523 5514 5506 5498 5491 5485 5478 5470 5462 5454 5447 5439 5430 5423 5417 5410 5404 5396 5387 5381 5373 5368 5363 5358 5353 5351 5349 5350 5352
5605 5599 5593 5588 5582 5574 5567 5559 5552 5545 5538 5530 5522 5514 5506 5498 5489 5482 5474 5468 5462 5454 5446 5439 5431 5423 5414 5405 5397 5391 5386 5378 5371 5364 5356 5349 5342 5338 5334 5333 5331 5330 5334
5585 5580 5575 5569 5563 5556 5548 5541 5533 5527 5520 5512 5506 5498 5489 5481 5472 5465 5459 5453 5447 5440 5433 5425 5416 5408 5398 5389 5380 5372 5365 5359 5354 5348 5343 5336 5327 5321 5317 5314 5314 5315 5315
5565 5562 5557 5550 5544 5537 5530 5523 5516 5508 5502 5496 5488 5481 5473 5465 5456 5450 5443 5437 5431 5426 5419 5412 5404 5394 5384 5375 5364 5355 5348 5342 5338 5331 5325 5319 5313 5308 5305 5302 5301 5301 5300
5547 5542 5537 5532 5526 5519 5512 5506 5499 5492 5485 5478 5470 5463 5455 5448 5442 5434 5428 5422 5416 5412 5405 5397 5390 5380 5371 5362 5352 5343 5335 5329 5323 5317 5311 5305 5301 5297 5295 5292 5291 5290 5286
5528 5523 5517 5512 5507 5500 5493 5488 5481 5474 5468 5460 5453 5446 5439 5431 5426 5419 5414 5407 5401 5396 5390 5383 5376 5367 5358 5349 5339 5330 5323 5317 5311 5305 5300 5296 5292 5289 5285 5283 5281 5279 5276
5508 5503 5498 5492 5487 5482 5475 5469 5462 5456 5449 5441 5435 5430 5423 5417 5411 5405 5399 5392 5386 5381 5375 5369 5361 5352 5344 5336 5327 5318 5311 5305 5300 5295 5291 5287 5283 5280 5276 5272 5271 5268 5266
5488 5483 5478 5473 5468 5462 5456 5450 5445 5438 5430 5423 5417 5412 5407 5401 5394 5388 5383 5377 5371 5365 5358 5354 5347 5338 5331 5322 5314 5307 5300 5295 5290 5285 5281 5277 5274 5271 5267 5262 5259 5257 5254
5469 5465 5460 5455 5449 5444 5438 5431 5425 5418 5411 5407 5401 5396 5390 5384 5378 5371 5365 5358 5352 5346 5342 5337 5329 5322 5315 5308 5302 5296 5290 5285 5280 5276 5272 5268 5266 5263 5260 5255 5251 5247 5243
5452 5447 5441 5436 5431 5425 5419 5412 5405 5399 5395 5390 5384 5378 5373 5368 5361 5353 5347 5340 5334 5328 5325 5318 5311 5305 5299 5293 5289 5284 5280 5275 5270 5267 5264 5260 5258 5255 5251 5248 5243 5238 5234
5430 5426 5422 5417 5412 5407 5401 5395 5390 5384 5378 5373 5367 5362 5356 5350 5343 5335 5327 5319 5315 5308 5305 5297 5291 5286 5282 5279 5275 5272 5268 5264 5260 5257 5255 5251 5248 5246 5243 5239 5234 5230 5226
5411 5407 5403 5398 5393 5388 5383 5378 5372 5367 5361 5356 5350 5344 5337 5331 5324 5316 5308 5300 5294 5288 5282 5276 5269 5266 5265 5264 5262 5260 5257 5254 5250 5248 5246 5242 5239 5236 5233 5229 5225 5221 5217
5394 5389 5384 5380 5376 5370 5365 5360 5355 5349 5344 5338 5331 5325 5318 5312 5304 5296 5286 5277 5270 5264 5258 5255 5252 5249 5248 5248 5247 5247 5246 5243 5240 5239 5237 5234 5231 5227 5224 5220 5216 5213 5209
5376 5371 5367 5362 5358 5353 5347 5342 5337 5331 5325 5319 5312 5304 5296 5288 5282 5273 5262 5251 5244 5239 5235 5234 5234 5233 5233 5233 5234 5235 5234 5232 5231 5230 5228 5225 5221 5218 5214 5210 5207 5204 5200
5358 5354 5350 5345 5341 5335 5330 5325 5319 5312 5306 5299 5291 5283 5274 5265 5254 5243 5234 5227 5220 5216 5211 5210 5212 5215 5216 5218 5220 5222 5223 5222 5221 5220 5219 5216 5213 5209 5206 5202 5198 5195 5192
5342 5337 5333 5328 5323 5318 5312 5306 5299 5292 5285 5278 5271 5263 5252 5242 5229 5220 5209 5199 5192 5187 5183 5184 5189 5195 5200 5204 5207 5210 5212 5212 5212 5212 5211 5208 5204 5201 5197 5193 5190 5186 5183
5324 5319 5315 5310 5305 5299 5293 5287 5279 5272 5266 5259 5250 5241 5231 5221 5211 5200 5188 5176 5169 5163 5160 5162 5169 5177 5185 5191 5196 5199 5202 5203 5204 5204 5203 5200 5197 5194 5190 5186 5182 5179 5175
5306 5301 5296 5291 5286 5280 5274 5267 5260 5253 5246 5238 5229 5220 5213 5204 5195 5183 5170 5159 5150 5146 5146 5150 5156 5164 5173 5180 5185 5189 5193 5195 5196 5196 5194 5192 5190 5186 5183 5179 5175 5171 5168
5288 5283 5278 5272 5266 5260 5254 5247 5240 5232 5225 5217 5210 5204 5198 5190 5182 5171 5160 5149 5143 5141 5142 5145 5150 5158 5165 5172 5177 5182 5185 5187 5188 5188 5187 5185 5183 5180 5176 5172 5168 5165 5161
Wind_Speed
58 57 57 60 63 62 62 64 66 70 71 74 78 82 84 85 84 82 81 80 80 81 81 83 84 84 85 86 86 87 87 89 90 83 87 88 88 89 87 87 87 86 84
59 61 63 66 66 64 64 68 71 73 74 78 81 85 86 85 83 82 82 82 83 84 83 82 83 84 84 84 83 82 81 80 82 79 78 77 79 80 81 81 83 87 89
63 64 66 69 67 66 68 72 75 76 77 81 83 85 84 83 83 83 84 84 81 79 81 83 83 82 80 78 76 75 73 72 72 72 70 71 70 73 73 73 72 71 74
67 69 69 69 68 69 73 75 77 79 81 82 84 84 84 85 84 84 81 76 79 80 81 81 78 75 72 70 69 68 67 68 68 69 68 68 69 70 72 73 69 70 69
70 69 70 72 72 73 75 77 80 81 82 83 84 85 85 85 85 79 76 77 79 79 77 75 70 68 67 67 66 66 67 66 67 67 66 66 67 69 70 71 71 69 66
68 70 72 73 75 76 75 78 80 81 82 83 84 85 87 85 77 77 78 77 77 75 70 67 65 64 64 64 65 65 65 65 65 66 65 65 63 61 60 60 59 59 55
69 71 73 74 75 74 77 79 80 82 82 83 85 86 82 76 77 77 77 76 73 68 65 64 63 64 65 66 66 66 66 67 69 69 68 67 64 62 60 58 56 53 51
69 71 72 73 74 76 77 78 80 81 82 83 84 78 75 77 77 76 74 70 66 64 63 62 63 65 67 67 67 65 66 67 68 67 69 67 64 61 60 58 56 52 46
66 69 72 75 74 75 77 79 80 81 82 82 74 73 75 76 75 72 68 65 63 62 62 64 65 65 66 67 68 66 63 63 62 62 64 64 63 59 56 54 52 50 43
69 73 72 72 74 76 78 79 79 81 79 73 72 73 75 73 71 68 64 62 60 60 62 63 64 66 67 68 67 64 61 59 58 59 59 58 56 53 50 48 46 44 43
71 70 71 73 76 78 78 78 80 74 71 71 71 72 72 68 66 64 59 58 60 60 62 62 64 66 67 69 69 62 60 58 55 57 54 52 48 44 41 40 41 40 39
69 71 72 76 77 77 77 74 70 70 70 70 71 70 67 66 62 57 59 61 62 63 64 65 65 66 69 72 71 61 57 54 54 55 50 42 37 34 35 36 37 37 39
72 75 75 76 76 75 69 67 68 68 68 69 68 66 63 61 59 59 61 63 64 65 65 65 64 67 70 74 71 60 54 52 53 48 39 39 36 35 35 35 37 37 38
74 74 75 75 70 66 66 66 67 67 67 67 65 62 61 59 60 63 64 66 68 67 66 66 66 70 73 74 69 57 53 52 50 39 39 37 35 34 35 35 35 38 40
74 73 70 66 65 66 66 66 67 65 64 65 63 62 62 63 65 67 69 70 70 70 69 67 68 71 74 70 60 53 50 49 42 40 38 35 33 32 33 35 37 37 39
70 66 64 64 65 65 66 66 65 65 65 65 64 62 64 66 69 71 72 73 74 73 72 70 73 75 74 61 52 48 47 46 39 38 35 33 31 30 30 32 34 34 36
64 64 64 63 63 64 65 66 66 67 66 66 66 63 64 68 72 72 72 74 76 77 74 76 78 77 66 52 47 46 43 41 38 35 33 32 32 31 31 30 30 31 32
64 63 62 62 63 64 66 66 67 67 68 66 63 64 67 69 72 75 78 81 80 79 81 81 79 69 53 48 46 44 41 37 36 34 32 33 33 33 32 31 31 31 30
63 62 61 63 64 66 66 68 68 67 67 64 63 67 71 74 76 78 81 83 84 86 87 80 68 55 47 47 45 41 38 35 34 32 32 33 33 32 31 31 30 31 30
61 62 64 65 66 67 68 68 68 68 69 68 69 72 74 77 78 81 84 88 92 87 69 60 55 49 44 43 41 37 36 34 32 30 30 31 31 31 31 30 30 29 29
63 64 65 65 67 69 69 66 66 68 70 71 74 75 77 80 82 88 93 91 78 70 67 61 55 49 44 40 38 35 34 32 30 28 28 30 31 31 32 32 30 29 28
64 65 65 66 67 67 65 65 67 69 71 72 75 77 81 86 91 85 74 74 75 72 69 62 55 48 43 38 36 33 32 29 27 25 26 29 30 30 31 31 31 29 28
64 65 66 64 64 64 65 69 71 73 72 72 75 80 85 87 74 74 75 73 69 65 61 56 49 44 39 34 33 31 28 25 24 23 24 27 28 29 30 30 30 29 28
65 64 63 63 64 66 69 72 73 70 72 76 80 84 79 68 69 68 68 63 58 53 45 40 38 37 37 32 30 28 23 21 21 21 22 24 26 27 28 29 28 29 26
61 62 63 64 67 69 69 69 71 75 80 82 80 70 61 62 61 62 56 51 42 32 29 26 28 29 30 28 28 23 19 18 18 18 19 21 24 25 26 27 27 27 27
61 62 64 65 66 67 70 72 79 78 74 66 57 55 55 55 54 49 42 34 23 18 16 17 19 23 24 24 22 18 16 15 14 14 16 19 22 23 24 25 25 26 26
Wind_Direction
288 292 297 300 300 298 298 298 300 302 305 306 308 307 304 302 301 300 299 299 299 298 298 298 297 296 294 292 291 289 287 285 284 281 280 278 276 273 272 270 267 265 263
293 294 298 299 297 296 296 299 302 304 307 307 305 304 302 301 299 299 300 301 300 300 300 299 299 299 297 295 294 292 290 289 288 286 283 281 279 276 274 271 268 267 264
293 295 296 296 295 295 298 301 303 305 306 305 304 303 301 299 300 302 302 301 301 301 302 301 299 298 298 296 294 292 292 292 291 290 287 286 283 281 278 276 272 269 267
295 294 294 294 295 296 299 301 304 305 304 303 301 299 299 300 302 302 302 301 303 303 301 300 300 299 298 296 295 294 293 291 290 290 288 287 285 283 281 279 275 274 271
293 294 294 295 295 295 299 302 304 303 302 300 299 299 300 302 303 302 301 302 302 301 300 301 301 299 298 297 296 295 295 295 294 292 292 291 289 287 286 283 281 277 275
292 293 293 293 293 298 300 301 300 299 298 298 299 300 302 302 301 301 301 302 301 301 301 302 300 299 299 299 299 299 299 298 296 295 294 294 292 290 288 287 284 280 276
291 291 292 292 294 297 299 300 298 297 297 298 299 301 301 300 300 301 301 301 302 302 302 302 302 302 302 301 301 300 299 299 297 296 295 295 295 294 291 288 287 284 280
290 290 289 291 295 297 297 295 295 295 297 299 300 299 299 299 300 300 301 301 303 303 305 307 307 306 305 304 304 302 299 297 295 295 293 293 293 292 290 288 286 284 283
286 286 288 293 296 294 294 293 293 295 297 298 298 298 298 298 299 300 301 302 303 306 309 309 309 309 309 310 307 304 302 298 296 296 295 295 296 294 291 288 286 284 279
285 289 293 293 292 292 292 292 295 296 296 296 297 297 296 297 298 300 301 304 306 308 309 310 311 312 311 313 314 308 303 301 300 297 298 299 297 295 292 289 284 281 278
291 292 291 291 290 290 291 293 294 293 294 295 295 294 295 297 298 301 304 307 310 312 312 314 316 316 317 320 320 313 307 304 303 303 305 303 299 293 288 285 284 282 277
290 289 288 287 288 289 291 292 291 292 294 294 293 294 296 298 301 303 305 307 310 311 313 314 316 318 319 322 321 313 307 305 306 309 309 305 298 292 291 288 287 283 281
288 287 286 286 288 290 289 290 292 293 293 293 294 297 298 300 302 303 305 307 309 311 312 314 314 315 319 321 320 312 307 306 308 309 307 304 300 298 294 292 291 288 286
284 284 285 287 287 287 289 291 292 292 293 295 297 299 300 300 300 301 304 305 307 307 309 312 312 313 316 318 316 309 305 307 309 305 305 303 300 298 296 294 292 292 290
284 285 285 285 287 289 290 291 292 294 297 299 301 301 301 300 300 302 302 302 303 305 308 308 308 311 313 314 309 306 304 306 304 305 304 302 301 303 303 301 299 296 295
284 284 285 287 288 289 291 292 294 297 298 300 301 300 298 298 298 299 299 299 303 306 307 306 306 308 310 307 301 303 300 303 300 302 302 301 303 303 301 303 301 300 300
284 285 286 287 287 288 291 293 295 297 298 297 298 297 297 297 297 298 297 297 299 302 304 304 303 304 304 299 296 300 297 300 299 299 299 299 299 299 297 301 307 307 309
284 285 286 286 288 289 291 293 294 296 297 296 294 294 295 295 295 295 295 296 298 300 302 302 300 298 293 291 293 296 296 295 296 296 296 296 297 298 298 299 305 309 310
284 284 286 287 288 290 291 292 294 295 294 293 292 293 293 295 296 296 295 295 298 300 301 300 294 292 286 286 288 291 292 291 292 293 293 295 299 301 303 302 303 305 310
283 284 285 287 289 291 292 292 292 292 292 293 294 292 292 295 296 295 295 296 296 298 296 295 293 287 282 282 281 283 286 288 288 290 292 295 298 302 305 306 303 303 307
284 285 287 289 290 291 291 291 291 291 292 293 290 292 295 296 296 296 296 296 295 293 291 288 286 282 279 276 272 274 279 283 284 287 291 295 300 304 305 307 307 302 303
286 287 288 290 289 288 289 291 291 292 293 290 290 294 296 298 300 300 298 296 294 291 287 282 277 272 271 268 264 266 272 277 279 285 292 297 302 304 309 309 309 304 299
286 287 288 287 287 288 290 292 292 293 292 293 294 297 299 302 301 302 301 298 295 290 282 274 267 260 260 261 255 258 266 270 276 285 295 299 303 308 310 311 312 308 301
285 286 285 286 288 291 292 291 292 292 292 294 295 299 301 301 303 304 303 300 295 290 280 265 254 248 244 250 246 249 259 264 275 287 296 301 304 308 311 313 312 313 305
284 285 287 290 290 289 290 292 292 293 294 297 299 300 301 304 305 308 307 305 299 284 270 253 246 238 229 235 237 244 248 260 275 291 299 304 308 311 313 313 313 315 310
287 288 288 288 289 290 291 292 296 297 299 300 298 299 302 304 308 311 312 311 296 278 262 245 223 210 216 222 230 233 245 261 279 297 306 311 313 316 319 317 315 316 317